RYR97SR LIMJ-LIRN

Flight info

Callsign RYR97SR
Flight time 1h 5m
Altitude 19000
Route UNITA L50 KONER/N0429F370 DCT ELB DCT ELVIN DCT RIFFI DCT PNZ
Aircraft B738/M-SDE3FGILRWY/SB1

Departure

Time 2026-04-17 11:03
Airport Genoa Cristoforo Colombo Airport (LIMJ)

Arrival

Time 2026-04-17 12:08
Airport Naples International Airport (LIRN)
Time Latitude Longitude Altitude Speed Heading
2026-04-17 10:34 44.41432 8.84953 21 ft 0 kts 60°
2026-04-17 10:50 44.41428 8.84941 19 ft 4 kts 60°
2026-04-17 10:50 44.41414 8.84908 20 ft 4 kts 60°
2026-04-17 10:50 44.41401 8.84876 20 ft 4 kts 60°
2026-04-17 10:50 44.41389 8.84843 21 ft 4 kts 72°
2026-04-17 10:51 44.41383 8.84806 23 ft 4 kts 90°
2026-04-17 10:51 44.41386 8.84775 23 ft 1 kts 105°
2026-04-17 10:51 44.41387 8.84769 23 ft 0 kts 105°
2026-04-17 10:54 44.41386 8.84773 19 ft 2 kts 105°
2026-04-17 10:54 44.41379 8.84810 19 ft 7 kts 104°
2026-04-17 10:54 44.41362 8.84899 19 ft 12 kts 105°
2026-04-17 10:55 44.41338 8.85036 19 ft 16 kts 102°
2026-04-17 10:55 44.41312 8.85175 20 ft 9 kts 105°
2026-04-17 10:55 44.41286 8.85248 20 ft 8 kts 140°
2026-04-17 10:55 44.41235 8.85284 19 ft 8 kts 171°
2026-04-17 10:56 44.41181 8.85262 19 ft 8 kts 195°
2026-04-17 10:56 44.41127 8.85244 20 ft 8 kts 195°
2026-04-17 10:56 44.41103 8.85235 18 ft 0 kts 195°
2026-04-17 10:57 44.41096 8.85232 18 ft 4 kts 195°
2026-04-17 10:58 44.41049 8.85204 17 ft 11 kts 210°
2026-04-17 10:58 44.40986 8.85252 17 ft 14 kts 106°
2026-04-17 10:58 44.40959 8.85391 18 ft 16 kts 105°
2026-04-17 10:58 44.40929 8.85550 19 ft 18 kts 104°
2026-04-17 10:59 44.40894 8.85729 23 ft 20 kts 105°
2026-04-17 10:59 44.40863 8.85890 22 ft 14 kts 105°
2026-04-17 10:59 44.40874 8.85989 22 ft 0 kts 72°
2026-04-17 10:59 44.40879 8.86010 21 ft 4 kts 72°
2026-04-17 11:00 44.40883 8.86069 21 ft 8 kts 108°
2026-04-17 11:00 44.40841 8.86080 22 ft 7 kts 224°
2026-04-17 11:00 44.40840 8.85998 22 ft 11 kts 286°
2026-04-17 11:00 44.40841 8.85993 22 ft 0 kts 286°
2026-04-17 11:02 44.40850 8.85948 21 ft 17 kts 285°
2026-04-17 11:02 44.40947 8.85449 19 ft 89 kts 285°
2026-04-17 11:02 44.41166 8.84327 20 ft 147 kts 285°
2026-04-17 11:02 44.41478 8.82809 298 ft 168 kts 287°
2026-04-17 11:03 44.41839 8.81266 1004 ft 165 kts 287°
2026-04-17 11:03 44.42185 8.79778 1812 ft 158 kts 288°
2026-04-17 11:03 44.42411 8.78154 2258 ft 184 kts 270°
2026-04-17 11:03 44.41833 8.76545 2936 ft 194 kts 226°
2026-04-17 11:04 44.40654 8.75581 3577 ft 201 kts 189°
2026-04-17 11:04 44.39312 8.75962 4282 ft 200 kts 147°
2026-04-17 11:04 44.38125 8.76931 5004 ft 200 kts 148°
2026-04-17 11:04 44.36887 8.77896 5616 ft 205 kts 148°
2026-04-17 11:05 44.35637 8.78876 6306 ft 206 kts 148°
2026-04-17 11:05 44.34385 8.79862 6918 ft 208 kts 148°
2026-04-17 11:05 44.33116 8.80863 7497 ft 210 kts 149°
2026-04-17 11:05 44.31733 8.81530 7991 ft 217 kts 178°
2026-04-17 11:06 44.30163 8.81439 8179 ft 240 kts 183°
2026-04-17 11:06 44.28420 8.81307 8405 ft 261 kts 182°
2026-04-17 11:06 44.26518 8.81172 8704 ft 284 kts 183°
2026-04-17 11:06 44.24509 8.81036 9378 ft 291 kts 183°
2026-04-17 11:07 44.22488 8.80907 10189 ft 294 kts 182°
2026-04-17 11:07 44.20387 8.80777 10649 ft 312 kts 182°
2026-04-17 11:07 44.18135 8.80641 10983 ft 331 kts 182°
2026-04-17 11:07 44.15809 8.80502 11643 ft 338 kts 182°
2026-04-17 11:08 44.13496 8.80918 12382 ft 343 kts 159°
2026-04-17 11:08 44.11431 8.82585 13217 ft 345 kts 141°
2026-04-17 11:08 44.09586 8.84760 14012 ft 350 kts 138°
2026-04-17 11:08 44.07727 8.87001 14715 ft 355 kts 139°
2026-04-17 11:09 44.05833 8.89248 15490 ft 359 kts 139°
2026-04-17 11:09 44.03910 8.91499 16278 ft 363 kts 140°
2026-04-17 11:09 44.01981 8.93737 17013 ft 368 kts 140°
2026-04-17 11:10 43.97994 8.98346 18492 ft 377 kts 140°
2026-04-17 11:10 43.95968 9.00686 19135 ft 381 kts 140°
2026-04-17 11:10 43.93919 9.03053 19786 ft 385 kts 140°
2026-04-17 11:10 43.91847 9.05457 20450 ft 389 kts 139°
2026-04-17 11:11 43.89784 9.07854 21053 ft 393 kts 139°
2026-04-17 11:11 43.87677 9.10302 21684 ft 397 kts 139°
2026-04-17 11:11 43.85539 9.12785 22280 ft 402 kts 139°
2026-04-17 11:11 43.83381 9.15286 22910 ft 405 kts 139°
2026-04-17 11:12 43.81229 9.17777 23509 ft 409 kts 139°
2026-04-17 11:12 43.79036 9.20311 24033 ft 413 kts 139°
2026-04-17 11:12 43.76813 9.22872 24534 ft 416 kts 139°
2026-04-17 11:12 43.74574 9.25447 25041 ft 419 kts 139°
2026-04-17 11:13 43.72315 9.28042 25538 ft 423 kts 139°
2026-04-17 11:13 43.70040 9.30655 26016 ft 426 kts 140°
2026-04-17 11:13 43.67745 9.33288 26489 ft 429 kts 140°
2026-04-17 11:13 43.65465 9.35901 26950 ft 432 kts 140°
2026-04-17 11:14 43.63135 9.38570 27415 ft 435 kts 140°
2026-04-17 11:14 43.60791 9.41253 27884 ft 438 kts 140°
2026-04-17 11:14 43.58439 9.43941 28326 ft 441 kts 140°
2026-04-17 11:14 43.56066 9.46652 28760 ft 444 kts 140°
2026-04-17 11:15 43.53672 9.49384 29132 ft 449 kts 140°
2026-04-17 11:15 43.51257 9.52136 29529 ft 452 kts 140°
2026-04-17 11:15 43.48856 9.54867 29946 ft 454 kts 140°
2026-04-17 11:15 43.46406 9.57649 30327 ft 457 kts 140°
2026-04-17 11:16 43.43939 9.60448 30655 ft 460 kts 140°
2026-04-17 11:16 43.41457 9.63260 30983 ft 462 kts 140°
2026-04-17 11:16 43.38965 9.66082 31337 ft 464 kts 140°
2026-04-17 11:16 43.36468 9.68907 31702 ft 465 kts 140°
2026-04-17 11:17 43.33972 9.71729 32143 ft 463 kts 140°
2026-04-17 11:17 43.31484 9.74538 32609 ft 462 kts 140°
2026-04-17 11:17 43.29039 9.77295 33035 ft 461 kts 140°
2026-04-17 11:17 43.26558 9.80090 33421 ft 461 kts 140°
2026-04-17 11:18 43.24077 9.82882 33824 ft 461 kts 140°
2026-04-17 11:18 43.21587 9.85682 34215 ft 461 kts 140°
2026-04-17 11:18 43.19100 9.88475 34548 ft 460 kts 140°
2026-04-17 11:18 43.16648 9.91225 34921 ft 459 kts 140°
2026-04-17 11:19 43.14174 9.93998 35291 ft 458 kts 140°
2026-04-17 11:19 43.11702 9.96765 35631 ft 457 kts 140°
2026-04-17 11:19 43.09235 9.99523 35948 ft 457 kts 140°
2026-04-17 11:19 43.06807 10.02234 36279 ft 456 kts 140°
2026-04-17 11:20 43.04355 10.04971 36623 ft 455 kts 140°
2026-04-17 11:20 43.01900 10.07708 36946 ft 454 kts 140°
2026-04-17 11:20 42.99449 10.10437 37137 ft 456 kts 140°
2026-04-17 11:20 42.96968 10.13196 37108 ft 460 kts 140°
2026-04-17 11:21 42.92038 10.18672 37105 ft 456 kts 140°
2026-04-17 11:21 42.87141 10.24097 37122 ft 451 kts 140°
2026-04-17 11:22 42.82264 10.29492 37114 ft 451 kts 140°
2026-04-17 11:22 42.77405 10.34857 37123 ft 452 kts 140°
2026-04-17 11:23 42.72537 10.40310 37114 ft 452 kts 135°
2026-04-17 11:23 42.68228 10.46463 37105 ft 452 kts 131°
2026-04-17 11:24 42.64006 10.52812 37107 ft 452 kts 131°
2026-04-17 11:24 42.59782 10.59092 37119 ft 452 kts 131°
2026-04-17 11:25 42.55497 10.65375 37100 ft 452 kts 131°
2026-04-17 11:25 42.51235 10.71583 37102 ft 452 kts 131°
2026-04-17 11:26 42.46938 10.77824 37093 ft 452 kts 131°
2026-04-17 11:26 42.42643 10.84051 37095 ft 451 kts 131°
2026-04-17 11:27 42.38382 10.90218 37092 ft 451 kts 131°
2026-04-17 11:27 42.34088 10.96419 37090 ft 450 kts 131°
2026-04-17 11:28 42.29825 11.02563 37088 ft 450 kts 131°
2026-04-17 11:28 42.25537 11.08729 37087 ft 449 kts 131°
2026-04-17 11:29 42.21266 11.14858 37081 ft 449 kts 131°
2026-04-17 11:29 42.16971 11.21008 37086 ft 449 kts 131°
2026-04-17 11:30 42.12671 11.27152 37087 ft 449 kts 131°
2026-04-17 11:30 42.08401 11.33240 37086 ft 449 kts 131°
2026-04-17 11:31 42.04102 11.39358 37083 ft 449 kts 131°
2026-04-17 11:31 41.99815 11.45445 37081 ft 449 kts 131°
2026-04-17 11:32 41.95501 11.51558 37079 ft 449 kts 131°
2026-04-17 11:32 41.91204 11.57633 36883 ft 452 kts 131°
2026-04-17 11:33 41.89035 11.60696 36489 ft 450 kts 131°
2026-04-17 11:33 41.86884 11.63728 36095 ft 445 kts 131°
2026-04-17 11:33 41.84784 11.66685 35706 ft 442 kts 131°
2026-04-17 11:33 41.82667 11.69663 35335 ft 438 kts 131°
2026-04-17 11:34 41.80566 11.72618 34949 ft 435 kts 131°
2026-04-17 11:34 41.78487 11.75538 34567 ft 432 kts 131°
2026-04-17 11:34 41.76407 11.78456 34189 ft 430 kts 131°
2026-04-17 11:34 41.74342 11.81351 33768 ft 427 kts 130°
2026-04-17 11:35 41.72296 11.84216 33356 ft 424 kts 130°
2026-04-17 11:35 41.70281 11.87035 32963 ft 421 kts 130°
2026-04-17 11:35 41.68261 11.89858 32575 ft 418 kts 130°
2026-04-17 11:35 41.66257 11.92656 32199 ft 415 kts 130°
2026-04-17 11:36 41.64264 11.95437 31822 ft 412 kts 130°
2026-04-17 11:36 41.62289 11.98189 31449 ft 409 kts 130°
2026-04-17 11:36 41.60326 12.00924 31078 ft 406 kts 130°
2026-04-17 11:36 41.58372 12.03643 30712 ft 404 kts 130°
2026-04-17 11:37 41.56454 12.06309 30367 ft 402 kts 130°
2026-04-17 11:37 41.54520 12.08996 29991 ft 399 kts 130°
2026-04-17 11:37 41.52592 12.11673 29567 ft 397 kts 130°
2026-04-17 11:37 41.50681 12.14321 29167 ft 393 kts 130°
2026-04-17 11:38 41.48792 12.16935 28813 ft 389 kts 130°
2026-04-17 11:38 41.46915 12.19527 28418 ft 387 kts 130°
2026-04-17 11:38 41.45073 12.22068 28060 ft 383 kts 130°
2026-04-17 11:38 41.43224 12.24616 27689 ft 380 kts 130°
2026-04-17 11:39 41.41390 12.27143 27325 ft 378 kts 130°
2026-04-17 11:39 41.39566 12.29654 26960 ft 375 kts 130°
2026-04-17 11:39 41.37774 12.32120 26610 ft 372 kts 130°
2026-04-17 11:39 41.35975 12.34594 26254 ft 370 kts 131°
2026-04-17 11:40 41.34186 12.37052 25897 ft 368 kts 131°
2026-04-17 11:40 41.32406 12.39495 25543 ft 366 kts 131°
2026-04-17 11:40 41.30635 12.41925 25208 ft 364 kts 131°
2026-04-17 11:40 41.28893 12.44314 24856 ft 362 kts 131°
2026-04-17 11:41 41.27141 12.46714 24503 ft 361 kts 131°
2026-04-17 11:41 41.25396 12.49103 24155 ft 359 kts 131°
2026-04-17 11:41 41.23652 12.51487 23791 ft 359 kts 131°
2026-04-17 11:41 41.21911 12.53864 23408 ft 357 kts 131°
2026-04-17 11:42 41.20182 12.56229 23012 ft 355 kts 131°
2026-04-17 11:42 41.18465 12.58581 22645 ft 353 kts 131°
2026-04-17 11:42 41.16778 12.60889 22293 ft 351 kts 131°
2026-04-17 11:42 41.15086 12.63204 21949 ft 348 kts 131°
2026-04-17 11:43 41.13399 12.65511 21608 ft 345 kts 131°
2026-04-17 11:43 41.11726 12.67796 21269 ft 343 kts 131°
2026-04-17 11:43 41.10086 12.70035 20934 ft 341 kts 131°
2026-04-17 11:43 41.08436 12.72285 20607 ft 339 kts 131°
2026-04-17 11:44 41.06791 12.74528 20269 ft 337 kts 131°
2026-04-17 11:44 41.05156 12.76754 19951 ft 335 kts 131°
2026-04-17 11:44 41.03533 12.78963 19630 ft 333 kts 131°
2026-04-17 11:44 41.01940 12.81129 19304 ft 332 kts 131°
2026-04-17 11:45 41.00328 12.83320 18976 ft 331 kts 131°
2026-04-17 11:45 40.98718 12.85507 18650 ft 330 kts 131°
2026-04-17 11:45 40.97123 12.87673 18317 ft 328 kts 131°
2026-04-17 11:45 40.96066 12.89108 18073 ft 328 kts 131°
2026-04-17 11:46 40.94472 12.91267 17711 ft 326 kts 131°
2026-04-17 11:46 40.92889 12.93411 17379 ft 324 kts 131°
2026-04-17 11:46 40.91338 12.95572 17044 ft 321 kts 126°
2026-04-17 11:46 40.90279 12.98085 16739 ft 315 kts 111°
2026-04-17 11:47 40.89403 13.00739 16421 ft 315 kts 111°
2026-04-17 11:47 40.88516 13.03403 16095 ft 316 kts 111°
2026-04-17 11:47 40.87618 13.06056 15788 ft 316 kts 111°
2026-04-17 11:47 40.86709 13.08711 15464 ft 315 kts 112°
2026-04-17 11:48 40.85798 13.11349 15158 ft 315 kts 112°
2026-04-17 11:48 40.84898 13.13947 14853 ft 314 kts 112°
2026-04-17 11:48 40.83984 13.16580 14538 ft 314 kts 112°
2026-04-17 11:48 40.83074 13.19196 14225 ft 313 kts 112°
2026-04-17 11:49 40.82174 13.21778 13912 ft 312 kts 113°
2026-04-17 11:49 40.81266 13.24381 13570 ft 311 kts 113°
2026-04-17 11:49 40.80363 13.26972 13231 ft 310 kts 113°
2026-04-17 11:49 40.79465 13.29543 12912 ft 307 kts 112°
2026-04-17 11:50 40.78573 13.32097 12600 ft 305 kts 112°
2026-04-17 11:50 40.77686 13.34636 12293 ft 303 kts 112°
2026-04-17 11:50 40.76807 13.37150 11989 ft 300 kts 112°
2026-04-17 11:50 40.75944 13.39613 11694 ft 298 kts 112°
2026-04-17 11:51 40.75077 13.42084 11393 ft 296 kts 112°
2026-04-17 11:51 40.74171 13.44510 11098 ft 295 kts 121°
2026-04-17 11:51 40.72716 13.46396 10919 ft 293 kts 142°
2026-04-17 11:51 40.71048 13.47922 10741 ft 288 kts 143°
2026-04-17 11:52 40.69418 13.49411 10558 ft 283 kts 142°
2026-04-17 11:52 40.67818 13.50885 10383 ft 277 kts 142°
2026-04-17 11:52 40.66268 13.52319 10214 ft 273 kts 142°
2026-04-17 11:52 40.64728 13.53748 10053 ft 268 kts 142°
2026-04-17 11:53 40.63212 13.55154 9869 ft 263 kts 142°
2026-04-17 11:53 40.61719 13.56539 9704 ft 260 kts 142°
2026-04-17 11:53 40.60262 13.57892 9544 ft 259 kts 142°
2026-04-17 11:53 40.58792 13.59257 9373 ft 258 kts 142°
2026-04-17 11:54 40.57326 13.60618 9198 ft 257 kts 142°
2026-04-17 11:54 40.55865 13.61972 9032 ft 256 kts 142°
2026-04-17 11:54 40.54429 13.63301 8873 ft 255 kts 142°
2026-04-17 11:54 40.52982 13.64641 8722 ft 253 kts 142°
2026-04-17 11:55 40.51538 13.65976 8561 ft 252 kts 142°
2026-04-17 11:55 40.50104 13.67301 8401 ft 251 kts 142°
2026-04-17 11:55 40.48672 13.68623 8249 ft 250 kts 142°
2026-04-17 11:55 40.47444 13.70150 8068 ft 245 kts 117°
2026-04-17 11:56 40.47004 13.72242 7944 ft 235 kts 86°
2026-04-17 11:56 40.47338 13.74309 7812 ft 231 kts 64°
2026-04-17 11:56 40.48168 13.76107 7682 ft 230 kts 54°
2026-04-17 11:56 40.49101 13.77815 7540 ft 230 kts 53°
2026-04-17 11:57 40.50041 13.79530 7390 ft 231 kts 54°
2026-04-17 11:57 40.50978 13.81254 7249 ft 232 kts 54°
2026-04-17 11:57 40.51964 13.82925 7066 ft 230 kts 42°
2026-04-17 11:57 40.53340 13.83852 6936 ft 225 kts 12°
2026-04-17 11:58 40.54891 13.83838 6805 ft 225 kts 349°
2026-04-17 11:58 40.56321 13.82984 6682 ft 229 kts 328°
2026-04-17 11:58 40.57637 13.81766 6550 ft 232 kts 327°
2026-04-17 11:58 40.58958 13.80530 6394 ft 232 kts 327°
2026-04-17 11:59 40.60371 13.79569 6212 ft 227 kts 354°
2026-04-17 11:59 40.61867 13.79813 6089 ft 218 kts 26°
2026-04-17 11:59 40.63077 13.80976 5966 ft 215 kts 49°
2026-04-17 11:59 40.63977 13.82532 5855 ft 213 kts 54°
2026-04-17 12:00 40.64828 13.84141 5723 ft 214 kts 55°
2026-04-17 12:00 40.65667 13.85725 5588 ft 213 kts 55°
2026-04-17 12:00 40.66521 13.87338 5470 ft 216 kts 55°
2026-04-17 12:00 40.67389 13.88973 5342 ft 219 kts 55°
2026-04-17 12:01 40.68268 13.90619 5206 ft 218 kts 55°
2026-04-17 12:01 40.69139 13.92249 5067 ft 217 kts 55°
2026-04-17 12:01 40.70007 13.93869 4929 ft 215 kts 55°
2026-04-17 12:01 40.70855 13.95456 4809 ft 214 kts 55°
2026-04-17 12:02 40.71717 13.97074 4650 ft 215 kts 54°
2026-04-17 12:02 40.72582 13.98679 4525 ft 213 kts 54°
2026-04-17 12:02 40.73435 14.00265 4388 ft 211 kts 54°
2026-04-17 12:02 40.74335 14.01784 4256 ft 209 kts 50°
2026-04-17 12:03 40.75219 14.03296 4140 ft 210 kts 54°
2026-04-17 12:03 40.76047 14.04881 4050 ft 207 kts 55°
2026-04-17 12:03 40.76826 14.06392 4035 ft 192 kts 55°
2026-04-17 12:03 40.77549 14.07784 4014 ft 179 kts 55°
2026-04-17 12:04 40.78256 14.09143 4008 ft 178 kts 54°
2026-04-17 12:04 40.78951 14.10480 3982 ft 179 kts 54°
2026-04-17 12:04 40.79676 14.11872 3717 ft 182 kts 54°
2026-04-17 12:04 40.80367 14.13200 3430 ft 174 kts 55°
2026-04-17 12:05 40.81039 14.14493 3173 ft 167 kts 54°
2026-04-17 12:05 40.81684 14.15731 2930 ft 160 kts 54°
2026-04-17 12:05 40.82312 14.16934 2687 ft 159 kts 54°
2026-04-17 12:05 40.82918 14.18104 2421 ft 150 kts 54°
2026-04-17 12:06 40.83480 14.19181 2232 ft 143 kts 55°
2026-04-17 12:06 40.84040 14.20260 2008 ft 141 kts 54°
2026-04-17 12:06 40.84591 14.21314 1785 ft 139 kts 54°
2026-04-17 12:06 40.85130 14.22349 1598 ft 135 kts 52°
2026-04-17 12:07 40.85655 14.23374 1353 ft 129 kts 56°
2026-04-17 12:07 40.86190 14.24379 1153 ft 140 kts 51°
2026-04-17 12:07 40.86724 14.25411 950 ft 131 kts 58°
2026-04-17 12:07 40.87239 14.26342 752 ft 124 kts 52°
2026-04-17 12:08 40.87741 14.27256 510 ft 127 kts 58°
2026-04-17 12:08 40.88218 14.28252 327 ft 129 kts 58°
2026-04-17 12:08 40.88653 14.29188 264 ft 108 kts 58°
2026-04-17 12:08 40.88947 14.29801 246 ft 48 kts 58°
2026-04-17 12:09 40.89053 14.30028 239 ft 17 kts 58°
2026-04-17 12:09 40.89045 14.30131 237 ft 11 kts 143°
2026-04-17 12:09 40.88979 14.30182 237 ft 6 kts 159°
2026-04-17 12:09 40.88961 14.30176 237 ft 3 kts 208°
2026-04-17 12:10 40.88945 14.30161 238 ft 3 kts 223°
2026-04-17 12:10 40.88932 14.30141 239 ft 3 kts 230°
2026-04-17 12:10 40.88913 14.30107 240 ft 6 kts 233°
2026-04-17 12:10 40.88878 14.30045 242 ft 11 kts 232°
2026-04-17 12:11 40.88824 14.29953 246 ft 15 kts 232°
2026-04-17 12:11 40.88756 14.29835 249 ft 16 kts 232°
2026-04-17 12:11 40.88688 14.29716 253 ft 16 kts 232°
2026-04-17 12:12 40.88559 14.29495 260 ft 15 kts 232°
2026-04-17 12:12 40.88499 14.29391 263 ft 14 kts 232°
2026-04-17 12:12 40.88441 14.29291 265 ft 13 kts 232°
2026-04-17 12:12 40.88386 14.29196 268 ft 13 kts 232°
2026-04-17 12:13 40.88332 14.29103 270 ft 13 kts 232°
2026-04-17 12:13 40.88280 14.29013 272 ft 12 kts 232°
2026-04-17 12:13 40.88228 14.28925 275 ft 12 kts 232°
2026-04-17 12:13 40.88179 14.28838 277 ft 12 kts 233°
2026-04-17 12:14 40.88131 14.28754 279 ft 11 kts 232°
2026-04-17 12:14 40.88084 14.28675 281 ft 11 kts 232°
2026-04-17 12:14 40.88038 14.28596 283 ft 11 kts 233°
2026-04-17 12:14 40.87992 14.28519 285 ft 10 kts 226°
2026-04-17 12:15 40.87941 14.28456 286 ft 10 kts 240°
2026-04-17 12:15 40.87942 14.28366 290 ft 10 kts 278°
2026-04-17 12:15 40.87946 14.28305 293 ft 6 kts 256°
2026-04-17 12:15 40.87934 14.28295 293 ft 2 kts 202°
2026-04-17 12:16 40.87923 14.28292 291 ft 2 kts 192°
2026-04-17 12:16 40.87911 14.28290 291 ft 2 kts 187°
2026-04-17 12:16 40.87898 14.28288 290 ft 2 kts 186°
2026-04-17 12:16 40.87885 14.28285 290 ft 2 kts 187°
2026-04-17 12:17 40.87881 14.28285 290 ft 0 kts 187°